Flag for Marshall Islands Weather past 2 weeks in Kwajalein, Marshall Islands

Now
81 °F

Partly cloudy.


Feels Like: 85 °F
Forecast: 79 / 85 °F
Wind: 18 mph from Northeast

Location: Kwajalein / Bucholz

Current Time: Jan 28, 2015 at 10:14:37 PM

Latest Report: Jan 28, 2015 at 10:00 PM


Visibility: 10 mi

Pressure: 29.81 "Hg

Humidity: 76%

Dew point: 72 °F

Location of KwajaleinLocation

Historic Weather in Kwajalein — Graph

°F

Kwajalein temperature yesterday

Maximum temperature yesterday: 85 °F (at 1:20 PM)
Minimum temperature yesterday: 80 °F (at 5:20 AM)
Average temperature yesterday: 81 °F

Past Weeks' High & Low Weather Summary

 TemperatureHumidityPressure
High86 °F (Jan 20, 1:40 PM)100% (Jan 23, 5:55 AM)29.98 "Hg (Jan 23, 5:55 AM)
Low78 °F (Jan 16, 3:20 AM)49% (Jan 23, 2:00 PM)29.72 "Hg (Jan 27, 4:00 PM)
Average81 °F69%29.86 "Hg
* Reported Jan 13 9:00 PM — Jan 28 9:20 PM, Kwajalein, Weather by CustomWeather, © 2014

Note: Actual official high and low records may vary slightly from our data, if they occured in-between our weather recording intervals... More about our weather records

Advertising

Kwajalein weather history for previous 24 hours

 ConditionsComfort  
Time TempWeatherWind HumidityBarometerVisibility
9:20 PM
Jan 28
81 °FPassing clouds.17 mph77%29.81 "Hg10 mi
9:00 PM81 °FPassing clouds.17 mph78%29.80 "Hg10 mi
8:40 PM81 °FPassing clouds.18 mph77%29.80 "Hg10 mi
8:20 PM81 °FPassing clouds.17 mph77%29.80 "Hg10 mi
8:00 PM81 °FPartly cloudy.17 mph77%29.79 "Hg10 mi
7:40 PM81 °FPassing clouds.18 mph76%29.79 "Hg10 mi
7:20 PM81 °FClear.17 mph76%29.78 "Hg10 mi
7:00 PM81 °FClear.20 mph76%29.78 "Hg10 mi
6:20 PM82 °FLight rain. Broken clouds.16 mph74%29.76 "Hg10 mi
6:00 PM83 °FScattered clouds.15 mph72%29.76 "Hg10 mi
5:20 PM84 °FScattered clouds.15 mph70%29.75 "Hg10 mi
5:00 PM84 °FSunny.17 mph69%29.75 "Hg10 mi
4:20 PM84 °FScattered clouds.18 mph68%29.73 "Hg10 mi
4:00 PM84 °FScattered clouds.15 mph68%29.73 "Hg10 mi
3:40 PM84 °FScattered clouds.16 mph68%29.72 "Hg10 mi
3:20 PM84 °FScattered clouds.16 mph68%29.72 "Hg10 mi
3:00 PM84 °FPartly sunny.17 mph68%29.72 "Hg10 mi
2:20 PM83 °FSunny.16 mph68%29.74 "Hg10 mi
2:00 PM83 °FSunny.14 mph69%29.75 "Hg10 mi
1:40 PM84 °FSunny.16 mph68%29.76 "Hg10 mi
1:20 PM84 °FSunny.16 mph67%29.77 "Hg10 mi
1:00 PM84 °FSunny.16 mph67%29.77 "Hg10 mi
12:20 PM84 °FSunny.20 mph68%29.79 "Hg10 mi
12:00 PM84 °FSunny.21 mph68%29.80 "Hg10 mi
11:40 AM83 °FSunny.21 mph70%29.81 "Hg10 mi
11:20 AM83 °FScattered clouds.18 mph71%29.81 "Hg10 mi
11:00 AM82 °FScattered clouds.17 mph72%29.82 "Hg10 mi
10:40 AM82 °FScattered clouds.17 mph72%29.82 "Hg10 mi
10:20 AM81 °FSunny.17 mph73%29.82 "Hg10 mi
10:00 AM81 °FSunny.20 mph74%29.82 "Hg10 mi
9:20 AM80 °FScattered clouds.22 mph77%29.82 "Hg10 mi
9:00 AM80 °FScattered clouds.21 mph78%29.81 "Hg10 mi
8:40 AM80 °FBroken clouds.18 mph78%29.80 "Hg10 mi
8:20 AM80 °FCloudy.16 mph77%29.79 "Hg10 mi
8:00 AM80 °FRain. Broken clouds.21 mph75%29.79 "Hg4 mi
7:40 AM80 °FScattered clouds.24 mph73%29.77 "Hg10 mi
7:20 AM80 °FBroken clouds.20 mph74%29.76 "Hg10 mi
7:00 AM80 °FPartly cloudy.17 mph73%29.75 "Hg10 mi
6:40 AM80 °FOvercast.18 mph73%29.75 "Hg10 mi
6:20 AM80 °FOvercast.20 mph74%29.75 "Hg10 mi
6:00 AM80 °FMostly cloudy.17 mph74%29.74 "Hg10 mi
5:40 AM80 °FPartly cloudy.16 mph73%29.73 "Hg10 mi
5:20 AM80 °FPassing clouds.18 mph73%29.73 "Hg10 mi
5:00 AM79 °FPassing clouds.17 mph75%29.72 "Hg10 mi
4:40 AM79 °FPassing clouds.20 mph76%29.72 "Hg10 mi
4:20 AM79 °FOvercast.21 mph76%29.72 "Hg10 mi
4:00 AM79 °FOvercast.16 mph75%29.72 "Hg10 mi
3:40 AM79 °FMostly cloudy.12 mph74%29.73 "Hg10 mi
3:20 AM80 °FHeavy rain. Mostly cloudy.14 mph71%29.73 "Hg7 mi
3:00 AM80 °FMostly cloudy.17 mph70%29.73 "Hg10 mi
2:40 AM80 °FMostly cloudy.17 mph69%29.74 "Hg10 mi
2:20 AM80 °FOvercast.15 mph69%29.75 "Hg10 mi
2:00 AM80 °FOvercast.20 mph70%29.75 "Hg10 mi
1:40 AM80 °FOvercast.18 mph70%29.76 "Hg10 mi
1:20 AM80 °FMostly cloudy.17 mph71%29.76 "Hg10 mi
1:00 AM80 °FMostly cloudy.20 mph71%29.78 "Hg10 mi
12:40 AM80 °FMostly cloudy.20 mph71%29.78 "Hg10 mi
12:20 AM80 °FOvercast.16 mph71%29.78 "Hg10 mi
12:00 AM80 °FPassing clouds.14 mph71%29.78 "Hg10 mi
11:40 PM
Jan 27
80 °FPassing clouds.16 mph71%29.79 "Hg10 mi
11:20 PM80 °FPartly cloudy.17 mph71%29.78 "Hg10 mi
11:00 PM80 °FPartly cloudy.17 mph71%29.79 "Hg10 mi
10:40 PM80 °FPassing clouds.16 mph71%29.79 "Hg10 mi
10:20 PM80 °FPassing clouds.16 mph70%29.79 "Hg10 mi
10:00 PM80 °FClear.14 mph70%29.79 "Hg10 mi
Weather by CustomWeather, © 2014

See weather overviewHow to use our weather pages